Location: Binningen
(47.7924°N, 8.7261°E)
Time: 08:27:03
(UTC+00:00)

Cosmos 494 Rocket - Pass Details

Date: 17 May 2021
Orbit: 743 x 770 km, 74.1° (Epoch: 20 June)

Event Time Altitude Azimuth Distance (km) Brightness Sun altitude
Rises 22:32:03 0° 334° (NNW) 3,222 8.6 -21.8°
Reaches altitude 10° 22:34:27 10° 331° (NNW) 2,288 7.5 -21.8°
Maximum altitude 22:39:33 61° 253° (WSW) 851 4.1 -22.0°
Enters shadow 22:40:38 49° 203° (SSW) 964 4.1 -22.0°
